Tracking 34138 objects as of 15-May-2026
HD Live streaming from Space Station
objects crossing your sky now

STARLINK-37206

Track STARLINK-37206 now!
10-day predictions
STARLINK-37206 is classified as:


NORAD ID: 68326
Int'l Code: 2026-059F
Perigee: 481.4 km
Apogee: 483.2 km
Inclination: 53.2 °
Period: 94.1 minutes
Semi major axis: 6853 km
RCS: Unknown
Launch date: March 22, 2026
Source: United States (US)
Launch site: AIR FORCE EASTERN TEST RANGE (AFETR)
Your satellite tracking list
Your tracking list is empty




NASA's NSSDC Master Catalog

Two Line Element Set (TLE):
1 68326U 26059F   26135.01343055  .00008507  00000-0  29894-3 0  9990
2 68326  53.1597  39.9401 0001336 140.7955 219.3143 15.30208875  8333
Source of the keplerian elements: AFSPC